Overview Statistics Trail Chart Weather Telemetry Raw packets
 

This is the latest recevied weather packets stored in our database for station/object N7WSS. If no packets are shown the sender has not sent any weather packets the latest 10 day(s).

<< 92 93 94 95 96 97 98 >>
Time Temp. Humidity Pressure Rain* Wind** Luminosity Snow
1787947981 40.56° C 23% 1013.5 hPa 0 mm - - -
1787947681 39.44° C 24% 1013.6 hPa 0 mm - - -
1787947381 40° C 23% 1013.9 hPa 0 mm - - -
1787947080 39.44° C 23% 1013.8 hPa 0 mm - - -
1787946780 38.89° C 24% 1014.2 hPa 0 mm - - -
1787946478 40° C 24% 1014.1 hPa 0 mm - - -
1787946174 41.11° C 23% 1014.3 hPa 0 mm - - -
1787945868 41.11° C 23% 1014.4 hPa 0 mm - - -
1787945564 41.11° C 23% 1014.3 hPa 0 mm - - -
1787945264 40.56° C 23% 1014.3 hPa 0 mm - - -
1787944964 40.56° C 24% 1014.5 hPa 0 mm - - -
1787944661 40.56° C 23% 1014.3 hPa 0 mm - - -
1787944357 40° C 24% 1014.7 hPa 0 mm - - -
1787944052 39.44° C 24% 1014.7 hPa 0 mm - - -
1787943747 39.44° C 23% 1014.5 hPa 0 mm - - -
1787943442 38.89° C 24% 1014.8 hPa 0 mm - - -
1787943138 38.89° C 24% 1014.9 hPa 0 mm - - -
1787942832 39.44° C 23% 1015 hPa 0 mm - - -
1787942528 40° C 23% 1015.1 hPa 0 mm - - -
1787942222 38.89° C 24% 1015.1 hPa 0 mm - - -
1787941917 38.89° C 24% 1015.2 hPa 0 mm - - -
1787941617 38.89° C 24% 1015.4 hPa 0 mm - - -
1787941316 38.33° C 25% 1015.2 hPa 0 mm - - -
1787941016 38.33° C 25% 1015.5 hPa 0 mm - - -
1787940715 37.78° C 26% 1015.5 hPa 0 mm - - -

* Rain latest hour (hover to see other rain measurements)
** Current wind speed in m/s (hover to see current wind gust speed)